Location: Ayer Observatory
(42.2600°N, 71.0700°W)
Time: 22:58:17
(UTC-04:00)

XW-2A - Pass Details

Date: 27 July 2019
Orbit: 432 x 448 km, 97.3° (Epoch: 21 August)

Event Time Altitude Azimuth Distance (km) Brightness Sun altitude
Rises 20:42:26 0° 169° (S) 2,393 ? -6.2°
Reaches altitude 10° 20:44:26 10° 170° (S) 1,532 ? -6.5°
Maximum altitude 20:47:42 80° 257° (WSW) 447 ? -7.0°
Drops below altitude 10° 20:51:02 10° 346° (NNW) 1,552 ? -7.5°
Sets 20:53:04 0° 347° (NNW) 2,428 ? -7.8°
